Flag for Austria Weather for the Past 2 Weeks in Gerasdorf bei Wien, Lower Austria, Austria

Now
39 °F

Overcast.


Feels Like: 35 °F
Forecast: 35 / 45 °F
Wind: 6 mph from West

Location: Wien / Hohe Warte

Current Time: Feb 10, 2016 at 9:18:07 PM

Latest Report: Feb 10, 2016 at 8:00 PM


Visibility: 41 mi

Pressure: 29.47 "Hg

Humidity: 69%

Dew point: 30 °F

Location of Gerasdorf bei WienLocation

Historic Weather in Gerasdorf bei Wien — Graph

°F

Gerasdorf bei Wien Temperature Yesterday

Maximum temperature yesterday: 54 °F (at 6:00 PM)
Minimum temperature yesterday: 46 °F (at 8:00 AM)
Average temperature yesterday: 51 °F

High & Low Weather Summary for the Past Weeks

 TemperatureHumidityPressure
High61 °F (Jan 28, 12:00 PM)99% (Jan 27, 6:00 AM)30.42 "Hg (Jan 27, 6:00 AM)
Low31 °F (Jan 27, 6:00 AM)42% (Jan 28, 12:00 PM)29.26 "Hg (Feb 10, 12:00 AM)
Average45 °F74%30.03 "Hg
* Reported Jan 26 8:00 PM — Feb 10 8:00 PM, Gerasdorf bei Wien, Weather by CustomWeather, © 2016

Note: Actual official high and low records may vary slightly from our data, if they occured in-between our weather recording intervals... More about our weather records

Advertising

Gerasdorf bei Wien Weather History for the Previous 24 Hours

 ConditionsComfort  
Time TempWeatherWind HumidityBarometerVisibility
8:00 PM
Wed, Feb 10
39 °FOvercast.6 mph69%29.47 "Hg40 mi
7:00 PM40 °FOvercast.6 mph64%29.44 "Hg22 mi
6:00 PM40 °FOvercast.6 mph72%29.44 "Hg22 mi
5:00 PM40 °FOvercast.8 mph74%29.41 "Hg22 mi
4:00 PM41 °FOvercast.7 mph78%29.38 "Hg22 mi
3:00 PM40 °FLight rain. Overcast.7 mph83%29.38 "Hg22 mi
2:00 PM40 °FLight rain. Overcast.7 mph79%29.35 "Hg22 mi
1:00 PM39 °FRain. Overcast.6 mph88%29.35 "Hg8 mi
12:00 PM40 °FRain. Overcast.7 mph87%29.35 "Hg10 mi
11:00 AM38 °FRain. Overcast.9 mph90%29.32 "Hg11 mi
10:00 AM38 °FRain. Overcast.9 mph90%29.32 "Hg7 mi
9:00 AM38 °FRain. Overcast.7 mph90%29.32 "Hg10 mi
8:00 AM39 °FRain. Overcast.8 mph88%29.32 "Hg9 mi
7:00 AM40 °FLight rain. Overcast.8 mph86%29.32 "Hg7 mi
6:00 AM42 °FLight rain. Overcast.6 mph76%29.32 "Hg16 mi
5:00 AM42 °FFog.7 mph83%29.32 "HgN/A
4:00 AM42 °FLight rain. Overcast.9 mph86%29.32 "Hg12 mi
3:00 AM45 °FSprinkles. Overcast.12 mph79%29.32 "HgN/A
1:00 AM53 °FOvercast.6 mph64%29.26 "Hg19 mi
12:00 AM53 °FCool.7 mph63%29.26 "HgN/A
10:00 PM
Tue, Feb 9
53 °FOvercast.7 mph63%29.29 "Hg19 mi
9:00 PM53 °FOvercast.7 mph65%29.32 "Hg19 mi
Weather by CustomWeather, © 2016

See weather overviewHow to use our weather pages